Theta_e
318 321 325 325 325 325 323 321 322 326 325 325 331 332 327 324 326 328 324 320 314 314 321 319 316 317 315 315 315 313 313 314 315 313 311 310 309 309 309 307 307 306 306 304 303 304 304 304 305 306 307 307 308 308 309 309 308 311 313 315 317 317 319 320 321 322 322 323 321 320 323 323 321 322 323 323 323 323 324 322 320 322 324 323 323 323
320 322 325 325 322 321 320 320 321 323 324 328 327 323 326 325 327 326 319 318 316 315 323 321 316 318 315 314 313 311 313 315 315 314 313 312 310 309 309 308 308 307 305 305 304 302 303 304 304 305 306 307 307 308 310 309 309 312 313 314 316 317 317 319 321 320 320 322 322 321 322 322 321 321 322 323 323 322 322 321 321 321 322 322 322 322
323 325 324 320 318 318 319 319 319 320 323 329 327 321 325 326 323 323 319 317 316 315 324 324 318 318 316 315 314 313 313 313 313 314 313 313 312 311 310 309 308 308 307 307 305 302 301 303 303 304 306 307 307 308 310 310 310 312 313 314 316 317 317 317 319 319 319 321 321 322 321 320 320 320 322 322 321 320 320 319 319 320 320 320 321 320
324 327 322 318 319 320 320 318 318 319 321 326 326 323 325 325 321 323 321 318 316 315 320 322 318 317 316 316 316 314 314 314 312 313 312 311 312 311 311 311 310 309 309 308 307 303 300 301 302 303 305 306 307 308 310 310 311 312 313 314 314 316 317 316 317 317 319 319 319 320 320 319 320 319 319 319 318 318 318 318 318 319 319 319 320 320
324 323 315 314 318 321 322 320 319 321 322 323 323 323 325 324 322 322 322 322 322 320 318 320 323 324 324 323 322 319 319 319 314 313 314 312 310 310 311 311 311 310 309 308 309 305 300 299 301 302 304 305 306 308 310 310 311 312 313 313 314 315 316 316 315 316 316 316 316 316 315 315 315 314 314 315 316 316 317 317 317 318 318 318 319 319
322 317 314 317 316 319 324 322 324 325 323 325 325 323 321 322 322 321 322 323 327 329 321 318 325 335 336 332 329 327 328 329 323 320 321 316 312 312 312 311 310 310 310 309 309 306 301 299 300 301 302 303 305 307 309 310 311 312 312 313 314 314 314 314 315 315 315 315 315 315 313 311 310 309 310 313 315 315 316 316 316 316 316 316 317 318
321 316 318 325 319 318 321 321 325 323 322 326 325 322 319 318 319 320 321 322 328 332 319 314 323 333 332 327 324 326 327 326 322 322 322 317 315 315 314 313 312 311 310 309 308 306 302 300 300 300 301 303 304 306 308 310 311 312 312 312 313 313 312 312 313 313 314 315 315 316 316 314 313 312 312 313 314 315 316 316 315 315 315 316 316 317
320 318 319 324 323 321 319 322 324 319 324 330 322 321 320 317 320 322 321 322 327 328 320 318 325 327 326 324 322 323 322 323 322 321 320 317 316 317 316 315 314 313 312 310 309 307 303 300 300 300 301 302 303 305 307 309 310 311 312 312 312 311 311 311 312 312 313 315 315 315 314 314 315 316 315 313 313 315 315 314 313 312 312 313 314 315
317 322 320 321 324 323 323 327 324 317 324 327 316 317 320 319 323 325 325 326 324 324 325 324 322 325 331 331 327 324 323 326 327 325 322 319 318 318 318 317 315 315 313 310 310 308 302 299 300 301 301 302 303 304 307 309 310 310 310 311 311 310 310 309 311 312 312 314 314 314 313 312 312 313 313 313 312 313 313 310 310 310 310 311 312 312
314 318 318 319 322 323 325 323 317 317 322 318 313 318 320 321 325 327 330 330 326 326 327 326 323 324 329 330 329 325 325 329 326 322 321 321 321 320 320 320 318 318 314 311 309 305 300 300 301 301 301 302 302 304 307 308 309 310 310 310 310 309 309 309 310 312 312 312 312 313 313 312 311 310 310 310 309 309 309 307 308 309 309 310 310 310
314 312 314 318 319 321 324 317 313 318 319 315 320 327 326 327 328 329 329 327 327 330 325 324 326 324 326 331 330 325 326 331 326 324 326 328 332 332 330 326 323 322 318 312 309 303 299 300 301 301 301 301 302 304 306 308 308 309 310 309 309 309 309 309 309 310 311 310 311 312 312 312 312 311 310 308 305 305 305 305 306 307 308 309 309 308
316 314 317 318 317 319 323 319 314 315 315 319 332 332 327 330 328 328 330 326 329 332 324 320 321 321 325 331 331 325 324 325 323 326 332 333 337 342 340 330 325 325 319 313 311 306 301 300 300 300 301 301 302 304 306 307 308 309 309 308 308 307 308 309 309 309 309 309 309 310 311 312 313 312 310 309 307 305 305 304 305 306 306 307 307 307
318 321 321 317 314 318 325 324 318 315 315 322 331 329 326 330 327 327 329 327 329 326 317 317 319 320 322 325 324 323 322 322 320 320 325 326 328 332 332 326 322 322 319 316 313 309 305 302 298 298 300 301 301 304 305 307 307 307 308 308 307 307 306 307 307 307 307 308 309 309 310 310 311 311 310 310 309 308 307 307 307 306 306 305 305 306
321 323 320 316 316 318 322 322 322 321 319 321 326 327 328 329 330 335 331 324 325 322 315 314 319 323 323 322 321 321 318 319 319 318 319 320 320 322 321 319 316 314 313 314 313 309 306 301 297 298 299 300 301 303 304 306 306 306 307 307 307 306 305 306 306 306 306 307 309 309 309 309 310 310 310 311 310 309 309 309 309 308 307 306 305 305
320 321 319 318 319 319 317 318 324 325 319 320 323 324 327 330 332 337 334 329 328 327 320 315 320 328 330 325 322 320 319 321 322 320 317 316 315 315 316 316 315 312 310 311 309 307 303 298 297 299 299 300 301 302 304 305 306 306 306 306 306 305 305 305 305 305 305 306 307 308 307 308 310 309 310 311 311 311 311 310 309 309 308 306 305 304
318 321 322 318 317 317 317 319 324 324 319 320 322 322 325 327 326 324 322 324 326 327 326 321 322 328 328 322 319 318 322 326 324 320 320 320 314 313 316 318 317 313 310 311 310 306 301 297 297 299 299 300 300 301 303 304 305 305 305 305 305 305 305 304 304 304 304 305 307 307 306 307 308 308 308 309 309 310 311 310 309 308 307 305 303 303
319 322 320 315 316 316 316 319 321 321 319 320 320 323 321 318 325 326 318 315 316 321 327 324 324 328 324 321 321 320 323 325 322 320 323 323 316 315 321 322 319 315 312 313 312 307 301 297 297 298 298 299 300 300 302 303 305 305 305 305 304 304 304 303 303 304 305 306 306 306 306 307 307 307 307 308 309 309 308 307 308 307 305 302 302 303
322 324 319 315 318 314 312 318 320 317 318 322 324 323 318 315 324 329 324 324 323 324 329 325 324 328 326 324 323 320 321 322 319 319 320 319 317 319 323 323 319 315 314 314 311 305 299 296 296 298 298 299 300 300 301 303 304 305 304 304 304 303 303 303 303 303 304 305 305 305 305 306 306 307 307 308 308 308 306 305 304 303 301 300 301 301
320 321 320 315 317 315 312 318 321 315 313 320 324 322 321 325 327 324 325 332 331 328 332 329 322 322 323 324 324 321 328 332 327 327 327 323 321 323 326 331 326 318 317 317 310 304 300 296 296 297 298 299 299 300 301 302 303 304 304 304 303 303 303 303 303 302 303 303 304 305 306 306 307 306 306 306 306 306 305 304 301 299 298 298 299 296
318 317 321 315 313 316 316 318 322 319 314 315 318 317 319 325 326 324 323 327 328 328 331 330 325 324 323 324 325 321 327 336 336 334 333 330 329 331 334 340 337 327 324 321 313 307 300 295 295 297 298 298 299 299 300 301 302 303 303 303 303 302 302 303 303 302 302 303 303 304 305 306 306 306 306 306 305 304 303 303 300 296 296 296 294 292
318 315 319 316 312 316 321 320 319 320 317 317 319 319 319 320 321 324 322 322 327 330 331 330 325 324 327 325 324 322 323 329 333 333 334 336 337 338 338 342 341 330 324 321 315 310 302 295 295 297 297 298 298 299 299 299 300 301 302 302 302 301 301 302 303 303 303 303 303 302 303 304 304 304 305 305 303 302 301 300 296 293 293 292 290 290
318 318 322 321 317 319 321 318 315 317 318 318 320 320 320 319 320 322 321 320 323 325 328 330 324 323 330 324 320 323 323 321 324 327 333 340 342 343 343 340 334 325 322 319 315 310 302 295 294 296 297 297 298 298 298 299 299 300 301 301 301 301 301 301 302 302 303 303 302 301 302 302 302 302 302 302 301 300 299 297 293 290 290 290 289 289
320 323 324 324 322 320 318 313 311 315 318 317 318 320 320 319 319 322 323 322 322 321 322 324 323 323 325 321 318 323 323 320 319 322 329 337 340 341 342 334 323 319 319 315 312 307 298 293 294 295 296 296 297 297 297 297 298 298 299 300 300 301 300 301 301 302 303 302 301 300 300 300 300 299 299 298 298 297 296 294 290 289 289 289 289 289
320 322 321 323 326 324 321 317 312 312 315 317 318 319 320 318 318 322 323 322 324 325 323 323 324 322 319 320 319 320 319 319 318 319 324 332 334 334 338 336 324 318 318 314 309 304 296 293 294 294 294 295 295 296 296 296 297 297 298 299 299 300 300 300 301 302 303 301 299 299 298 298 297 297 296 296 296 296 294 292 289 287 288 288 288 288
319 323 322 323 325 325 323 322 318 314 315 319 322 320 319 318 318 320 321 321 323 327 326 324 324 321 320 322 320 318 317 319 321 319 319 325 330 332 336 333 320 316 318 315 310 304 298 296 295 293 293 294 294 295 295 296 296 296 297 298 298 299 299 299 299 300 302 301 299 297 297 296 296 295 295 294 294 294 293 290 288 287 287 287 288 287
318 322 321 320 322 322 321 322 322 320 316 318 322 322 318 319 320 319 320 322 323 324 324 322 321 320 321 322 320 317 318 320 324 325 318 317 324 327 331 331 324 321 319 316 313 308 303 300 296 293 293 294 294 294 295 295 296 296 296 297 298 298 298 298 298 298 300 300 298 296 295 294 294 294 294 293 293 293 292 290 288 287 287 287 287 287
323 322 318 319 320 319 318 320 323 324 320 318 320 320 317 318 319 319 320 322 322 323 323 321 320 321 322 324 324 323 325 326 327 327 323 322 324 322 322 325 326 322 317 313 312 309 305 302 298 294 293 293 294 294 294 295 295 295 296 296 297 297 297 297 297 297 298 298 297 296 295 294 293 294 294 293 293 292 291 289 287 286 286 287 287 287
325 323 318 319 319 318 317 319 322 323 321 320 320 319 318 317 318 319 321 321 321 323 323 320 320 321 321 323 328 329 329 329 329 330 329 326 324 322 321 323 325 323 318 313 311 310 308 305 300 295 293 293 293 294 294 294 295 295 295 295 296 296 296 296 296 296 296 296 295 295 294 293 293 293 294 293 292 291 290 289 287 286 286 286 286 286
323 322 320 320 319 318 317 318 321 323 321 320 320 319 318 317 317 318 319 319 320 321 321 320 323 323 319 319 323 325 327 327 326 327 324 320 319 321 322 324 325 325 322 318 316 312 308 306 302 296 293 293 293 293 293 294 294 294 295 295 295 295 295 295 295 295 295 294 294 294 293 292 292 292 292 291 290 289 288 287 286 286 286 286 286 286
321 321 321 321 320 320 318 318 322 322 320 320 319 318 318 317 317 318 318 318 319 320 319 320 324 322 319 321 321 321 324 324 322 322 320 318 320 322 322 322 322 321 320 319 317 312 307 304 302 296 293 292 293 293 293 293 293 294 294 294 294 294 294 294 294 294 294 293 293 293 292 291 292 291 290 289 288 287 286 286 286 285 285 286 286 286
318 321 323 321 320 321 319 319 321 320 319 320 319 318 318 317 317 317 318 318 318 319 319 319 321 320 318 322 325 324 324 321 320 321 321 320 321 321 321 320 319 318 318 317 315 312 308 304 302 298 294 293 293 293 293 293 293 293 294 294 294 293 293 293 293 293 293 293 292 292 291 291 291 290 289 287 286 286 286 286 285 285 285 285 285 285
317 321 324 321 320 321 320 320 320 318 317 318 319 319 319 318 318 317 317 318 318 319 319 319 320 320 318 321 324 325 325 324 323 322 321 319 319 319 319 318 317 316 316 315 315 313 311 308 306 303 297 294 294 294 293 293 293 293 293 293 293 293 293 292 293 293 292 292 292 291 291 290 290 289 288 287 286 286 286 285 285 285 285 285 285 284
319 319 320 320 321 321 320 322 322 319 318 319 319 319 318 317 317 317 317 317 317 318 320 320 319 318 319 322 323 322 324 325 323 321 318 317 317 318 318 316 316 316 315 314 314 313 312 311 305 300 297 295 295 295 295 294 294 293 293 293 293 293 292 292 292 292 292 292 291 291 290 290 289 289 288 287 287 286 286 285 285 285 285 285 284 284
320 319 317 318 321 322 321 322 321 321 322 321 318 317 318 316 317 317 317 317 316 316 317 318 318 317 318 321 320 321 322 322 320 318 317 316 316 319 320 318 316 315 313 312 312 311 312 308 301 298 298 298 297 297 296 295 294 294 293 293 293 292 292 291 291 291 291 291 291 290 290 289 289 288 288 288 287 287 286 285 285 285 284 284 284 284
319 318 317 317 320 321 320 320 322 323 322 322 323 322 319 316 316 317 317 316 315 316 316 317 318 317 317 318 318 319 319 318 319 317 315 315 316 317 319 317 315 314 313 313 312 311 309 304 299 298 299 299 298 297 296 295 294 294 293 293 292 292 291 291 290 290 290 290 290 290 290 289 289 288 288 288 287 286 286 285 285 284 284 284 284 284
319 317 317 318 319 320 321 321 324 324 322 323 327 326 321 319 317 317 318 317 315 315 316 316 316 316 316 316 317 318 317 317 317 316 315 317 318 316 316 316 315 315 315 312 310 309 305 300 299 300 300 299 298 297 296 295 294 293 292 292 292 291 291 290 290 289 289 289 289 289 289 289 288 288 288 287 286 286 285 285 285 284 284 284 283 283
320 319 318 318 319 320 322 322 322 323 323 324 325 323 320 319 318 317 318 318 316 315 315 315 315 315 316 316 316 316 315 316 316 314 317 320 318 314 313 313 312 311 308 304 303 302 301 300 301 301 300 299 298 296 295 294 293 292 292 291 291 290 290 289 289 289 289 289 289 289 288 288 288 288 287 287 286 286 285 285 284 284 284 284 283 283
318 319 318 320 319 319 321 323 323 324 324 322 321 321 320 320 319 318 319 320 319 317 315 314 315 315 315 316 316 314 314 316 317 315 320 322 316 312 314 311 304 300 298 296 297 298 299 299 299 299 298 297 296 295 294 293 292 292 291 290 290 289 289 289 288 288 289 289 289 289 288 288 288 288 287 286 286 286 285 285 285 284 284 284 283 283
317 318 318 319 320 319 321 323 323 324 324 322 323 324 323 322 320 318 320 322 320 319 317 315 314 316 316 315 316 317 316 318 317 315 320 321 312 308 313 311 302 295 293 293 294 295 297 297 297 297 296 295 293 293 293 293 292 291 290 289 289 289 288 288 288 288 288 288 288 288 288 288 288 288 287 287 286 286 286 285 285 285 284 284 284 285
316 317 317 318 319 320 320 321 322 323 322 323 326 324 319 318 318 321 323 323 321 322 321 317 315 317 316 315 316 318 318 318 317 315 315 311 304 299 301 304 301 295 292 292 294 294 295 296 295 294 293 293 292 292 292 292 291 290 289 288 288 288 288 288 288 288 288 288 288 288 288 288 288 288 288 287 287 286 286 286 285 285 285 286 286 287
317 317 317 318 319 319 320 321 321 321 322 325 324 319 315 316 319 323 324 322 323 326 322 318 319 319 317 317 316 316 316 316 313 311 307 304 302 299 294 292 292 291 290 291 293 293 293 293 293 292 291 292 292 291 291 292 290 289 289 288 288 288 288 288 289 288 288 288 288 288 288 288 288 288 288 288 287 287 286 286 286 287 287 288 288 288
318 318 317 318 318 318 319 320 320 321 325 324 317 311 313 319 321 323 320 318 324 330 322 316 320 320 317 318 317 314 314 312 308 307 306 304 303 302 295 291 291 291 291 291 292 293 293 291 290 290 290 290 291 291 291 291 290 289 289 288 288 288 288 289 289 288 288 288 288 288 288 288 288 288 287 287 287 287 287 288 288 289 289 289 288 287
318 318 318 318 318 318 319 319 320 322 321 318 312 310 313 318 321 324 321 314 315 321 319 316 318 317 315 317 316 312 310 308 305 305 304 301 299 298 296 294 293 292 291 291 291 292 292 290 288 289 289 289 291 291 291 291 290 289 288 288 288 289 289 289 289 289 288 288 288 288 288 288 287 287 287 288 289 290 290 290 289 289 288 287 286 285
318 319 319 318 318 318 319 320 321 321 317 315 317 317 315 315 318 322 323 318 312 310 312 316 316 312 312 316 316 310 307 307 305 303 302 300 298 297 295 293 291 290 289 290 290 292 292 290 288 288 288 289 290 291 291 292 290 288 288 289 289 289 289 289 289 289 288 288 288 288 288 288 288 288 289 290 290 290 289 288 287 286 285 285 284 283
318 318 319 319 318 318 319 318 318 317 312 311 316 318 315 313 311 310 315 318 314 308 308 314 317 311 306 310 313 309 306 306 304 302 302 300 297 295 295 292 290 289 289 289 289 291 291 289 288 288 288 289 289 290 290 291 291 289 288 289 289 289 289 289 289 288 288 288 288 288 289 289 289 289 289 289 288 287 286 286 285 284 283 283 283 282
315 314 317 320 319 318 317 315 313 312 310 308 308 308 309 309 308 306 310 314 312 307 305 309 314 311 303 303 308 308 305 303 302 300 297 297 295 294 293 291 288 288 288 288 289 289 289 289 288 288 288 289 289 290 290 290 291 290 289 289 289 289 289 289 289 289 288 289 289 288 288 288 287 287 287 286 286 286 285 285 285 284 283 283 282 282
311 310 313 317 319 320 319 315 312 311 309 308 307 304 303 304 303 304 307 308 307 305 303 304 306 304 299 299 305 307 302 298 299 298 294 294 294 293 293 292 289 287 287 288 288 288 289 288 287 287 287 288 289 290 290 289 290 290 290 290 290 290 290 290 289 289 288 288 288 287 287 287 286 285 285 284 284 284 284 284 284 283 283 282 282 282
312 309 311 314 316 317 315 311 308 306 306 306 306 305 304 304 302 300 300 299 300 300 300 299 299 298 297 297 300 302 298 295 296 296 294 293 293 292 292 292 288 285 287 288 288 289 288 287 286 286 286 285 287 289 289 289 289 289 289 289 289 289 289 288 288 288 287 287 286 286 285 286 286 285 284 284 283 283 283 283 283 283 283 282 282 282
310 310 312 313 314 314 313 309 306 307 308 308 305 304 303 302 301 300 297 296 299 301 299 298 296 295 296 297 296 298 299 295 293 294 293 293 292 291 291 289 286 285 287 288 288 289 288 286 286 285 284 283 285 288 288 288 288 288 288 288 288 288 288 288 287 287 287 286 286 285 285 285 285 285 284 284 283 283 282 282 283 283 282 282 282 282
310 312 312 312 313 315 315 313 310 311 315 314 309 305 303 301 300 299 298 299 301 301 300 299 296 292 293 294 293 297 301 296 291 292 293 292 291 291 289 287 286 285 286 287 288 288 287 286 285 284 282 282 284 286 287 287 287 287 288 288 288 288 289 288 288 287 286 286 286 285 285 285 285 284 284 284 284 283 283 282 282 282 282 282 281 281
312 314 313 313 315 316 315 314 311 311 316 317 312 307 304 301 300 301 301 301 301 299 298 300 300 296 294 292 291 294 299 296 292 292 293 291 289 288 287 286 286 285 285 286 286 285 284 284 284 283 282 282 284 286 286 286 287 287 288 288 288 289 289 289 289 287 286 286 286 286 286 286 286 285 285 285 284 284 283 282 281 281 281 281 280 280
Wind_Speed
2 2 1 5 6 7 8 6 5 5 6 6 5 4 4 4 4 5 3 5 2 2 6 7 7 11 11 11 12 8 2 5 10 10 10 10 9 9 10 11 11 12 13 12 13 17 20 23 25 25 25 24 23 22 21 19 19 20 21 22 23 23 24 25 24 25 26 26 25 24 24 22 20 18 17 15 14 12 10 9 9 14 19 16 17 20
4 3 7 9 8 7 5 5 7 5 5 5 4 1 2 3 5 6 2 4 1 3 5 3 4 11 12 12 12 7 4 8 11 11 13 13 12 11 11 13 12 11 10 7 9 15 18 21 24 26 26 27 27 26 24 22 22 23 23 24 25 25 25 25 26 27 27 27 25 22 22 23 21 20 19 17 16 14 12 12 12 16 19 17 18 18
3 4 11 7 6 6 4 6 7 5 5 4 3 1 3 3 4 6 3 5 2 3 4 5 4 10 12 12 12 10 10 11 11 11 12 12 12 12 11 12 12 10 9 8 9 12 17 21 23 26 28 30 30 28 27 25 24 25 26 26 27 27 26 26 26 27 26 25 24 23 22 23 22 21 21 20 18 16 14 14 16 18 18 16 18 17
2 6 9 5 9 7 5 4 7 5 3 2 3 3 3 3 1 4 4 4 2 1 2 4 5 9 11 11 12 12 10 9 10 11 12 12 13 15 12 9 10 12 12 11 8 9 15 19 22 27 30 31 30 29 29 28 27 28 29 28 28 28 27 27 27 27 27 25 24 23 23 23 22 21 21 20 18 17 15 16 18 21 19 20 23 21
5 6 2 5 7 8 6 4 6 5 2 3 5 5 4 5 5 5 4 4 3 3 2 3 6 7 7 8 10 7 5 6 8 9 12 13 13 13 10 9 10 11 11 11 9 9 12 18 24 29 30 30 30 31 31 31 31 31 30 29 28 28 28 28 28 28 28 27 26 24 23 23 21 20 21 21 20 18 17 17 20 23 23 24 26 24
7 5 4 6 3 6 7 4 6 7 4 4 5 9 10 8 6 3 3 5 4 4 3 4 3 6 5 6 9 6 5 8 6 6 12 13 10 9 9 12 12 10 10 10 9 10 13 19 24 26 28 29 31 33 33 32 32 31 30 29 28 28 29 29 29 29 28 27 27 27 26 25 22 22 22 21 21 19 19 20 22 23 24 24 25 24
4 1 5 6 5 6 6 4 6 7 5 2 5 8 10 6 4 3 1 2 1 4 3 2 1 6 7 7 10 7 7 11 9 9 13 12 9 8 9 10 9 9 9 8 8 9 12 18 20 23 28 31 33 33 31 30 30 30 29 30 29 29 30 30 30 30 29 28 28 28 28 27 26 24 23 22 21 20 21 23 23 24 24 24 24 23
4 2 4 6 6 5 6 4 6 8 7 3 4 5 6 6 6 5 5 3 3 3 3 2 4 3 7 8 7 5 7 11 12 13 14 12 11 10 9 10 9 8 8 7 8 9 10 16 20 24 29 31 31 29 27 28 29 29 29 30 30 30 31 31 30 30 29 29 28 28 28 27 27 26 25 24 22 22 24 25 25 25 25 24 24 23
4 6 6 6 5 4 6 5 7 11 6 4 2 6 6 6 5 5 5 2 1 3 4 1 4 2 7 7 5 3 4 9 12 15 14 12 11 10 10 9 8 7 7 7 9 9 11 17 23 25 26 27 27 27 28 28 29 29 28 28 30 30 31 31 31 30 30 30 29 28 29 27 26 26 26 26 25 25 26 27 27 26 26 25 25 25
1 5 7 7 5 6 4 2 6 9 4 4 6 7 6 6 5 5 4 3 4 3 7 6 6 3 6 5 3 2 2 8 12 12 11 10 10 9 8 8 6 5 5 7 7 8 12 17 21 22 22 24 26 27 28 27 28 29 29 29 30 31 31 31 31 32 31 30 30 30 30 29 27 26 26 26 27 28 28 28 28 28 27 27 27 27
1 1 3 3 4 5 4 3 1 4 5 6 6 6 7 6 5 4 2 3 3 5 8 6 10 7 4 5 4 3 4 7 9 8 7 8 8 8 6 6 6 5 4 5 6 6 10 13 15 18 19 22 24 26 27 27 28 30 31 31 31 32 33 33 32 32 32 32 32 32 32 31 29 27 27 28 29 29 29 29 29 28 28 28 28 29
3 1 1 2 2 4 7 5 4 3 4 5 4 5 4 3 4 4 4 4 1 6 5 1 6 7 5 6 5 6 7 7 7 7 8 9 8 7 6 5 5 5 4 4 5 5 5 7 11 15 18 20 23 26 28 28 29 31 32 32 32 33 34 34 34 33 33 33 33 33 33 31 29 27 28 30 32 32 31 30 29 29 29 29 29 30
2 4 3 2 1 4 6 5 5 4 2 4 4 6 4 2 3 3 3 0 3 7 4 1 1 3 7 9 8 10 14 11 9 9 9 10 10 8 7 6 5 4 4 4 5 5 5 6 10 15 18 21 24 27 29 29 30 31 32 33 33 34 34 34 34 34 34 34 34 33 32 30 29 28 29 32 34 33 32 30 29 29 30 31 31 32
3 5 2 1 2 3 7 6 3 1 3 4 5 6 4 2 1 3 3 1 4 6 3 2 1 2 5 7 10 16 18 13 9 10 10 10 10 10 9 7 7 6 5 5 5 5 5 7 10 15 19 22 25 27 29 30 30 31 31 32 33 33 33 34 35 35 35 35 35 33 32 31 30 30 31 33 34 32 31 30 30 30 31 32 34 35
5 6 5 7 3 6 10 8 6 6 5 5 4 5 5 5 5 4 3 3 4 4 3 3 2 3 4 4 7 12 12 9 8 8 8 8 9 7 8 9 9 9 6 5 6 6 6 9 13 16 20 23 25 27 29 30 31 31 31 32 33 32 33 34 35 35 35 35 34 33 32 31 32 32 33 33 32 30 29 30 31 32 33 34 35 36
5 7 6 3 1 10 11 5 5 7 3 2 2 4 3 5 5 1 2 5 3 2 3 2 4 5 5 6 8 8 8 9 8 6 6 9 7 3 6 9 9 8 5 4 6 6 7 10 15 17 20 23 25 27 30 31 32 32 32 33 33 33 34 35 36 36 35 35 34 33 32 32 33 34 34 33 32 30 30 32 33 34 34 35 36 37
3 5 5 3 2 5 6 2 4 3 3 2 3 4 4 3 6 3 1 1 4 1 4 2 5 5 3 7 10 8 10 11 8 6 7 9 5 3 7 9 8 8 5 5 6 6 7 10 14 17 20 22 25 28 31 32 33 34 34 34 34 34 34 36 37 37 36 35 34 33 33 33 34 34 33 31 30 30 31 34 35 35 35 37 38 39
5 4 4 1 1 2 1 2 3 3 3 5 4 6 2 2 3 3 1 2 3 2 5 2 6 5 2 5 6 2 7 12 12 10 10 9 5 6 9 9 9 7 5 6 6 6 6 9 13 17 20 24 26 29 31 33 33 34 34 35 36 35 36 37 38 38 37 36 35 34 34 35 35 34 32 30 29 30 33 35 36 37 38 39 40 41
4 3 5 2 2 3 4 3 1 4 2 5 4 4 4 2 2 2 2 2 1 3 4 4 5 4 5 6 3 2 8 10 11 10 10 9 7 8 9 9 9 6 4 5 5 5 6 8 13 17 20 23 26 28 30 32 32 32 33 34 35 36 36 37 37 37 36 35 35 35 35 36 35 33 31 30 30 32 35 37 38 39 41 42 42 42
3 4 4 2 1 1 3 2 5 2 2 3 2 2 3 2 4 3 3 3 3 3 3 4 5 4 7 7 7 10 11 9 9 9 7 8 8 8 8 7 7 5 5 5 5 6 6 8 13 18 20 23 25 27 28 30 32 33 33 33 34 34 34 35 37 37 36 35 35 35 36 36 35 33 31 31 33 35 36 38 40 42 43 43 44 44
3 4 4 3 4 0 2 4 8 9 6 4 4 5 3 1 2 1 1 2 4 3 2 2 6 7 5 5 9 12 11 11 11 9 7 8 8 8 7 7 6 5 5 5 5 6 6 8 13 16 19 21 23 24 26 29 32 33 33 33 33 33 34 36 37 37 37 36 36 36 36 36 36 34 33 33 35 36 37 39 42 43 44 44 45 45
3 4 4 2 0 3 4 3 4 7 8 7 6 8 9 6 4 3 3 2 2 2 4 3 6 10 5 5 8 9 9 10 10 8 7 7 8 7 7 7 6 5 5 5 6 6 5 7 12 15 18 20 21 24 26 28 30 32 33 33 33 34 35 36 37 37 37 36 37 37 36 36 36 35 35 36 36 36 38 41 43 44 45 45 45 46
4 4 4 3 4 6 4 2 1 4 3 2 3 5 6 6 6 6 5 4 2 1 2 3 3 9 4 4 7 7 6 6 5 6 7 7 7 7 7 6 5 5 5 5 5 5 6 8 12 15 17 20 22 24 26 27 29 31 33 34 34 34 35 35 37 37 37 37 37 37 36 36 36 36 36 36 36 37 38 41 43 44 45 46 46 45
2 3 3 2 3 3 4 4 2 2 2 2 5 4 4 6 6 4 3 4 4 4 3 3 4 9 4 2 4 5 5 4 4 6 8 7 7 7 7 6 5 6 5 4 5 4 5 8 10 13 16 19 21 23 26 28 29 30 32 33 34 35 35 35 36 36 37 37 36 36 36 36 36 36 36 36 37 37 39 41 43 43 44 45 45 44
4 4 5 2 1 3 4 3 2 1 3 4 4 4 5 8 6 3 1 2 1 7 8 5 7 9 4 3 3 3 4 5 6 6 6 6 7 6 6 6 6 6 3 3 4 4 5 7 8 11 15 18 20 23 25 27 29 31 32 34 35 36 35 35 35 36 37 37 36 35 36 36 36 36 37 37 37 37 39 41 43 42 42 43 43 43
7 6 7 7 7 7 6 6 5 4 3 2 4 7 9 10 11 7 2 2 5 8 8 7 10 9 3 4 4 2 2 5 7 6 4 5 8 7 6 7 5 3 3 5 5 5 6 7 8 11 15 18 20 23 25 27 29 31 33 35 36 36 36 35 35 36 36 37 36 36 36 37 37 37 37 37 37 38 40 42 43 42 42 42 42 41
4 5 10 12 13 12 12 10 5 6 7 6 10 12 11 11 12 9 4 5 9 5 4 11 15 12 7 4 5 6 5 6 7 5 4 6 8 8 7 8 5 3 4 5 5 6 7 8 9 11 15 18 20 23 25 27 29 31 32 34 35 36 36 36 36 36 36 37 37 37 38 38 38 38 38 38 38 39 40 42 43 43 42 41 41 41
3 4 11 15 16 16 17 14 8 10 11 14 15 14 13 12 12 12 11 14 10 4 9 17 13 14 16 9 8 9 6 6 7 7 7 7 8 8 8 7 5 5 5 5 6 7 8 9 9 9 13 17 20 22 25 27 29 31 32 33 34 35 36 36 36 36 36 36 37 38 39 38 38 38 38 38 39 39 41 43 43 42 41 41 40 41
3 5 9 13 15 17 18 13 9 10 11 13 16 18 17 16 16 16 19 23 15 9 17 17 10 15 22 13 11 11 8 8 9 9 7 5 5 8 8 8 7 8 8 7 8 9 9 10 9 8 12 17 19 23 25 27 29 30 31 32 33 34 35 35 36 36 36 36 37 38 37 37 37 38 38 38 38 39 40 41 41 40 39 39 40 40
4 5 7 11 12 15 18 14 10 11 10 9 13 17 18 18 20 22 24 27 22 16 21 19 11 17 19 9 11 12 9 9 7 5 6 6 7 10 10 9 9 10 11 10 10 10 10 10 8 8 11 16 21 24 25 27 29 30 31 32 32 33 34 34 35 36 36 36 36 35 34 35 36 37 37 37 37 37 38 38 38 38 38 38 39 39
4 6 5 7 7 10 17 18 13 11 10 10 9 11 15 17 22 25 25 22 17 16 23 21 16 19 12 7 9 9 7 7 7 7 10 10 10 11 10 11 11 10 11 11 10 10 9 8 8 8 11 17 23 25 26 28 28 29 30 31 31 32 33 33 35 36 36 35 34 32 31 33 35 35 35 35 34 34 35 36 37 37 37 37 38 38
3 3 0 2 5 10 16 18 11 6 5 8 8 10 16 19 20 21 18 15 15 18 21 18 15 18 8 8 8 8 7 8 9 11 12 10 10 11 10 11 11 10 12 12 11 11 8 8 9 10 13 19 23 25 27 28 26 27 30 30 30 31 31 33 34 34 34 34 32 31 31 32 33 33 33 33 33 33 34 35 35 36 36 37 37 37
4 4 2 3 6 11 14 9 4 5 2 7 12 17 21 22 18 13 11 16 19 18 16 14 16 19 10 6 7 7 7 9 12 11 11 11 10 9 9 10 11 11 12 12 11 11 9 9 10 12 16 20 22 26 28 27 27 28 30 29 28 29 31 32 33 33 32 32 31 31 31 31 31 32 32 33 33 33 33 34 34 35 36 37 36 36
5 7 6 5 5 10 9 2 6 4 7 11 14 17 20 19 16 13 16 20 20 16 14 14 16 19 12 7 9 9 9 11 12 11 9 7 7 7 9 10 11 11 11 10 10 10 9 9 10 14 19 21 21 22 23 24 26 27 26 26 28 29 31 32 32 31 31 30 30 30 30 30 31 32 32 33 33 33 33 34 34 35 36 36 36 36
7 8 7 5 4 5 2 4 4 8 10 11 9 7 10 14 17 20 22 21 18 16 17 18 20 21 16 10 9 10 10 11 10 10 7 5 6 8 10 10 9 8 9 9 10 10 9 9 11 15 18 18 17 17 18 22 25 24 24 26 28 29 30 31 30 30 29 29 29 30 31 31 32 32 32 32 33 33 33 34 34 35 35 35 35 35
9 8 6 5 4 3 2 5 9 7 3 5 7 3 5 9 14 16 17 17 16 15 16 20 24 25 20 14 11 10 7 5 7 7 5 7 9 10 9 10 9 8 9 8 8 9 9 10 13 16 17 16 14 16 18 21 23 23 23 25 26 27 28 29 29 28 28 28 29 30 31 32 31 31 31 31 31 31 32 33 33 33 33 32 32 32
10 7 5 5 5 5 6 8 8 7 7 8 11 7 6 9 12 12 12 15 15 15 17 20 24 24 19 14 14 9 2 4 10 7 7 10 11 8 8 8 7 7 7 7 8 10 11 13 14 15 14 12 12 15 18 19 21 22 22 22 24 25 26 27 27 27 27 27 28 29 30 30 30 29 29 29 30 30 30 30 30 30 30 30 30 30
10 9 7 7 5 5 7 8 7 6 9 14 15 7 6 9 11 12 10 13 13 16 19 20 21 20 16 14 15 7 3 3 12 9 7 8 5 2 4 5 5 6 7 9 11 12 11 10 9 8 8 9 11 13 16 18 20 21 21 22 23 23 24 24 25 25 26 27 28 28 28 29 29 28 28 29 29 29 29 28 28 28 28 28 27 27
12 9 8 8 6 5 7 8 7 7 9 14 13 5 7 10 11 10 7 12 14 15 16 16 17 16 15 16 14 4 4 6 13 9 5 5 1 2 3 4 5 5 5 6 7 7 5 3 2 3 6 10 12 13 16 18 21 21 21 21 22 22 22 23 24 25 25 25 26 27 27 27 28 28 28 28 28 28 28 27 27 26 25 24 23 22
12 8 7 8 8 9 9 9 7 6 8 10 7 4 6 10 14 11 7 12 10 9 11 13 15 16 17 16 9 5 7 10 10 5 4 3 1 1 1 2 4 4 4 4 2 2 3 4 6 8 10 12 14 15 17 19 20 20 20 20 21 21 22 22 22 22 23 23 24 25 25 26 26 26 27 26 26 26 25 24 24 23 22 22 21 22
10 8 7 8 10 11 12 10 6 4 7 7 5 5 7 10 11 9 12 9 5 8 10 14 16 17 17 12 7 7 9 7 3 2 2 2 2 1 1 1 0 2 4 5 6 8 9 9 9 11 12 13 16 17 19 20 20 19 19 20 20 20 20 20 20 20 21 21 22 23 23 23 24 24 24 24 23 22 22 22 21 21 20 21 21 23
8 6 6 8 10 10 10 9 7 6 7 6 6 4 7 8 7 10 7 2 4 9 9 12 14 14 11 9 8 8 5 2 4 4 3 3 4 3 0 1 4 5 6 8 9 10 13 14 13 13 13 14 17 18 19 20 20 19 19 19 19 18 18 18 19 20 20 21 21 22 22 22 22 22 22 21 21 20 20 20 19 19 19 20 21 23
9 6 5 7 8 7 7 8 8 8 6 10 12 4 4 7 7 6 3 1 1 6 7 8 9 8 7 8 8 6 4 4 4 4 4 3 4 4 3 3 5 5 7 9 9 12 15 16 15 15 15 16 17 18 19 19 19 19 19 18 17 17 17 17 18 19 20 21 21 21 21 21 21 21 20 20 19 18 18 18 19 19 19 20 21 22
9 8 6 7 8 7 8 9 7 4 6 13 13 8 10 8 4 4 5 3 2 3 5 6 6 5 6 7 7 6 5 4 4 5 5 4 4 4 4 4 5 6 7 9 11 14 17 18 17 16 16 16 17 18 18 18 19 19 18 16 16 16 16 17 18 19 20 21 21 21 20 20 20 20 19 18 18 18 18 17 17 18 18 19 20 21
8 8 6 7 8 6 6 6 4 2 5 7 5 5 8 6 3 3 5 4 3 4 4 5 6 6 6 6 6 6 5 4 5 5 5 5 4 4 5 4 5 7 9 11 12 14 18 19 19 18 16 14 14 15 15 15 17 19 17 15 15 16 17 18 20 20 21 21 21 21 20 20 20 19 18 17 16 16 16 16 16 17 17 18 19 20
3 3 2 3 4 3 2 3 2 1 4 5 1 1 3 3 3 4 4 2 3 5 4 4 6 7 6 6 6 5 5 5 6 5 4 5 4 4 4 4 6 8 10 12 13 15 19 20 20 19 18 15 12 12 11 11 14 16 15 14 14 15 16 18 20 20 20 20 20 19 19 18 18 17 15 14 14 13 13 14 15 16 17 18 19 20
3 1 2 1 4 5 4 4 3 2 5 5 2 1 2 1 1 2 3 1 3 4 3 3 4 6 7 6 6 6 5 6 7 5 4 5 4 4 4 5 6 8 9 11 13 17 20 20 18 18 18 16 13 12 11 11 12 14 14 13 13 13 15 17 18 18 18 18 18 17 16 16 15 15 14 13 12 12 12 13 14 15 16 17 18 18
2 2 1 2 3 3 2 2 2 4 5 4 3 2 3 3 1 2 1 1 4 5 3 2 4 5 6 5 5 7 6 6 7 7 5 4 4 4 4 5 6 8 10 12 14 16 18 19 18 18 18 17 14 14 14 14 14 14 14 13 13 14 15 17 17 18 17 17 16 16 15 14 13 13 13 13 12 12 12 12 12 13 14 14 15 15
1 1 2 1 1 2 3 2 1 3 5 5 5 4 3 2 2 3 2 2 5 5 5 4 3 4 6 5 5 7 8 6 6 7 7 6 5 5 5 6 8 10 12 14 15 16 18 19 20 20 19 18 17 17 17 17 16 15 15 15 14 15 16 17 17 17 17 16 15 15 14 13 12 12 12 13 12 11 10 10 10 11 11 11 12 12
1 2 2 2 1 2 5 4 3 1 3 5 5 6 4 3 4 4 2 2 4 5 6 6 4 3 4 5 5 7 8 7 6 7 7 6 6 6 7 8 10 11 12 14 16 17 19 20 22 23 21 19 19 20 20 19 18 16 16 16 15 14 16 17 17 17 16 15 14 14 13 13 12 11 10 10 10 10 9 8 8 9 10 10 9 9
5 6 5 4 4 5 6 6 6 5 4 5 6 9 9 7 6 6 6 6 6 6 7 8 7 5 4 3 4 6 8 8 7 8 7 5 6 8 10 11 11 11 13 16 18 19 20 21 23 24 23 21 21 21 21 20 18 17 16 16 15 13 14 16 17 17 15 14 13 12 11 11 11 10 10 9 9 10 10 9 8 6 7 7 7 6
Wind_Direction
85 105 188 215 210 203 204 187 158 150 125 117 124 127 174 199 268 255 245 292 260 170 251 235 238 263 266 264 268 271 208 228 257 261 260 256 250 246 241 242 240 236 246 254 246 235 230 227 223 219 216 214 215 217 217 217 208 201 204 205 203 202 199 198 199 196 191 187 182 176 179 187 186 186 186 186 190 191 196 196 213 224 206 200 204 193
70 147 231 228 204 190 182 143 119 108 85 86 124 148 269 207 251 258 232 303 303 177 267 291 274 269 267 267 268 263 242 245 245 245 252 250 246 245 241 243 242 243 253 251 236 227 220 219 217 214 212 211 211 211 211 211 205 201 206 208 204 203 200 199 203 198 190 187 188 189 190 194 195 193 192 194 193 194 206 207 213 216 200 188 190 186
47 228 244 225 151 112 91 115 118 107 88 75 109 128 281 254 270 282 302 336 354 180 273 336 315 274 269 268 266 254 240 244 242 238 247 248 248 246 239 241 244 251 253 238 228 218 213 213 212 211 210 211 212 211 209 208 204 201 205 209 205 203 203 202 201 196 193 193 196 202 199 192 190 188 190 193 190 190 206 216 213 204 193 189 193 195
141 249 253 191 142 122 83 98 110 103 100 117 137 152 255 262 274 282 301 336 2 156 277 319 306 277 271 268 263 255 247 256 257 251 252 246 245 248 246 243 238 242 246 239 228 211 209 210 208 210 210 210 210 209 207 204 202 202 205 208 205 202 204 203 200 196 196 195 192 194 193 191 191 188 187 188 186 188 200 211 206 202 204 203 198 195
219 243 238 115 144 144 115 118 132 141 231 240 188 181 221 237 218 234 290 324 343 12 14 343 312 284 274 270 266 278 311 292 265 255 260 251 244 251 260 258 239 235 240 237 227 207 202 207 209 210 210 208 207 206 206 203 202 202 203 206 204 202 203 203 202 201 200 196 191 187 184 184 185 181 181 180 180 186 195 199 199 202 206 202 194 189
250 238 121 105 129 139 132 164 179 167 200 275 230 202 214 224 220 239 347 6 359 336 348 24 319 284 299 281 264 289 329 296 269 247 259 260 254 248 253 255 245 239 239 234 228 211 203 209 211 211 210 207 207 208 207 205 203 202 202 203 204 203 202 202 203 204 204 202 196 189 181 177 174 172 176 181 184 189 192 193 198 201 198 196 193 188
246 258 92 121 142 144 150 203 223 174 143 282 248 206 211 205 190 200 105 52 309 267 288 66 179 274 302 280 263 277 285 277 277 267 263 267 265 247 241 250 248 241 238 236 234 216 207 210 208 210 210 208 209 209 205 204 202 201 203 203 202 203 202 202 202 201 201 202 199 194 190 187 186 182 182 187 191 193 191 193 198 198 193 192 192 188
187 154 75 112 116 130 164 216 224 164 132 241 246 165 170 174 187 190 156 176 238 268 303 67 132 257 286 273 274 288 280 280 281 274 270 267 262 256 250 249 247 240 231 228 231 220 212 212 208 211 212 210 210 207 201 201 201 201 203 203 202 202 202 202 203 202 201 201 201 199 196 195 195 195 193 191 192 193 192 192 195 194 191 190 190 189
162 173 177 156 130 156 190 218 191 154 143 245 206 122 136 150 162 140 125 167 352 357 294 225 134 232 268 271 308 330 276 277 274 267 269 272 267 262 258 255 255 247 229 220 224 222 216 214 214 215 213 210 208 204 201 201 201 201 202 202 202 202 203 203 204 206 206 206 207 205 202 198 195 194 193 191 190 190 190 189 190 191 189 188 188 186
120 194 194 160 155 194 204 251 186 162 170 202 128 96 80 78 81 83 103 119 53 336 257 209 159 217 268 262 292 349 238 252 261 263 266 273 273 265 263 268 273 267 245 231 229 227 222 221 219 216 211 208 206 203 201 200 200 200 201 201 201 202 205 204 205 207 208 207 208 207 204 200 194 191 189 187 186 186 187 187 187 189 188 187 186 184
314 263 200 162 176 183 133 69 150 148 142 140 109 71 53 41 40 52 56 77 67 281 265 204 177 194 271 269 225 217 219 225 242 264 276 281 285 277 271 275 274 271 259 244 242 242 232 226 219 211 206 204 202 201 199 197 198 200 201 200 200 202 205 205 206 208 208 207 205 206 204 201 196 193 191 187 183 182 184 185 186 187 187 187 186 184
335 345 244 232 175 125 97 70 26 53 109 110 90 82 72 357 9 24 357 44 126 254 281 255 180 179 234 257 235 247 262 242 227 245 264 273 281 281 276 273 268 261 255 246 243 241 222 206 202 199 198 197 196 197 196 196 197 198 199 199 199 201 203 205 206 207 208 207 204 202 201 201 202 202 199 193 187 185 185 186 187 187 187 187 187 186
289 231 260 310 200 140 114 85 35 15 46 85 101 110 103 337 354 345 305 73 220 255 284 333 186 188 237 253 255 262 266 253 230 228 239 252 265 275 278 272 267 256 244 242 234 223 207 191 191 191 192 192 193 195 196 196 197 198 199 199 199 201 202 204 205 205 207 206 203 201 201 205 207 208 206 199 192 189 188 189 191 192 191 190 189 188
274 290 286 167 253 182 154 152 143 199 188 157 149 142 137 138 166 254 265 271 261 270 283 259 243 251 265 266 244 243 252 250 240 239 238 244 255 267 283 288 280 266 242 238 234 218 211 202 195 193 192 192 194 195 196 196 197 198 199 200 201 202 202 203 205 205 205 205 204 205 207 209 209 206 204 199 195 193 194 196 200 202 200 196 193 189
219 279 216 178 204 185 181 188 162 141 162 185 157 137 160 168 171 211 219 213 246 282 305 278 230 194 209 254 236 234 257 268 259 259 258 257 253 259 286 290 280 270 248 235 235 224 216 206 199 196 195 195 196 196 196 196 197 198 199 201 202 203 203 204 205 205 205 206 207 208 209 210 209 206 202 200 199 201 205 207 206 207 206 202 196 190
202 262 244 228 209 169 181 196 120 111 141 215 115 114 198 195 155 157 201 177 180 312 308 252 228 213 210 272 272 247 265 271 257 264 273 265 257 253 276 274 272 271 254 229 231 229 220 207 201 199 198 198 197 197 197 197 197 198 200 201 203 205 205 204 204 205 207 207 208 209 209 210 208 204 200 200 202 207 214 216 212 209 207 202 195 189
178 273 286 339 351 170 181 183 123 136 175 162 143 180 218 177 123 108 245 88 78 264 271 222 245 284 313 286 272 250 258 267 261 260 257 257 258 257 263 261 264 268 248 229 231 225 214 206 205 203 200 200 199 199 200 199 199 200 200 201 202 204 205 205 205 205 206 207 209 211 211 210 207 203 203 205 210 215 217 215 212 209 204 198 193 189
166 253 300 76 179 278 322 117 74 24 128 136 186 204 175 87 94 106 208 345 44 240 270 253 243 276 305 274 289 273 251 262 264 257 254 259 254 248 259 258 263 267 244 233 237 228 216 207 206 205 204 203 202 203 203 203 202 202 202 202 201 202 204 205 205 204 205 207 210 211 210 209 207 207 211 215 220 221 216 211 207 204 200 195 192 189
159 222 306 48 175 299 4 104 96 352 69 140 189 179 119 141 199 114 162 208 183 238 277 286 268 251 208 230 274 220 224 242 257 256 253 256 239 232 251 259 267 276 253 240 238 229 221 209 207 206 205 207 206 206 206 205 204 203 204 205 204 204 205 205 205 205 206 208 210 212 211 210 211 213 216 219 221 218 213 209 204 200 196 193 190 188
135 200 270 345 275 309 29 152 193 207 47 66 117 121 101 166 181 163 163 168 175 216 264 303 307 260 217 206 201 218 223 218 238 249 244 247 239 227 236 247 256 256 242 241 235 230 225 213 212 208 206 208 207 208 207 205 205 204 204 205 205 205 205 206 207 207 207 210 211 212 211 212 214 216 218 221 219 216 212 208 204 198 194 191 189 187
97 203 235 324 339 154 181 220 198 175 157 152 168 172 185 175 122 154 198 133 142 168 195 279 289 265 240 194 192 212 222 212 217 226 225 236 239 232 233 236 239 240 241 239 229 230 225 212 213 211 210 211 209 209 208 206 207 206 206 206 205 205 205 206 208 208 209 211 212 213 213 213 213 214 217 219 217 214 211 207 202 197 194 192 190 189
179 194 184 147 226 197 211 245 208 188 182 182 190 196 194 176 143 173 236 215 129 163 180 181 265 267 248 192 198 207 221 224 211 199 216 242 240 236 240 236 231 234 237 234 228 229 222 208 208 206 207 208 207 207 208 207 207 207 207 207 206 207 207 207 207 208 210 212 213 214 214 215 214 213 214 214 214 213 210 206 201 197 195 193 192 192
154 117 149 183 216 216 232 296 209 209 200 186 221 211 191 184 173 176 207 213 157 203 188 129 259 273 260 195 212 218 238 254 222 191 216 246 250 246 245 238 240 244 235 227 226 226 215 206 204 203 204 205 206 207 207 207 208 208 208 208 207 208 208 208 208 209 211 213 214 214 215 215 215 214 213 212 211 211 209 206 201 198 197 195 194 194
106 121 173 240 305 309 315 335 19 86 120 221 239 198 165 203 203 174 186 182 160 199 194 134 244 263 274 248 247 256 265 272 253 220 218 232 255 265 261 249 237 242 246 237 232 227 212 202 199 201 205 206 207 207 206 207 208 209 209 209 209 209 209 209 209 209 211 213 213 214 214 214 214 213 212 211 211 210 209 206 202 200 199 198 197 196
176 185 173 163 290 322 324 318 326 273 202 217 229 185 181 201 182 133 128 124 187 218 195 188 245 253 268 315 297 291 285 273 262 248 229 231 253 268 277 267 227 210 224 240 239 231 209 202 202 205 208 207 208 208 207 208 208 209 210 210 210 210 210 209 209 208 210 212 212 213 213 213 213 212 212 211 210 210 208 205 203 202 201 200 199 198
173 187 177 175 209 224 223 223 225 214 187 200 219 195 196 192 176 180 199 165 229 229 192 200 243 252 288 327 303 282 285 276 264 257 249 249 256 261 272 275 255 202 202 220 224 223 217 216 216 212 210 209 210 209 208 209 209 210 211 211 211 211 209 209 208 207 207 209 211 211 212 212 211 211 211 211 210 210 208 206 204 203 203 202 201 200
149 190 191 192 206 214 223 228 193 133 143 198 213 199 198 195 185 191 199 203 219 219 209 227 235 247 261 264 264 256 232 240 255 265 269 258 257 258 255 261 270 255 232 223 215 220 225 228 224 217 214 212 212 212 211 211 211 211 211 212 212 211 209 209 208 206 205 206 208 210 211 211 210 210 211 211 211 210 208 207 206 205 204 203 202 202
120 212 205 206 214 219 229 228 181 147 173 199 204 198 197 194 184 189 210 222 212 178 246 241 221 239 250 227 221 242 227 230 248 247 246 245 246 253 258 268 288 281 256 234 224 227 226 230 229 218 215 214 213 215 215 215 214 213 213 213 211 210 209 208 206 205 205 205 206 209 210 209 209 210 211 211 211 210 208 207 207 206 205 204 203 204
162 225 211 213 223 229 239 233 182 175 193 195 196 197 195 190 187 195 215 226 214 196 244 243 188 220 245 228 212 224 208 211 225 222 231 249 256 263 273 286 293 283 267 246 236 235 229 232 230 213 215 214 212 215 216 216 217 214 214 214 211 210 209 207 205 204 205 205 206 209 209 208 209 210 211 210 209 208 207 206 206 206 205 205 205 206
183 218 206 212 224 232 243 240 196 192 209 203 199 199 193 188 193 202 216 225 220 217 243 247 220 236 247 214 204 222 210 215 233 245 261 266 258 261 270 274 270 266 265 256 246 240 233 233 229 212 212 213 213 215 214 214 216 213 213 213 211 209 208 205 204 204 205 206 207 208 207 207 208 209 208 208 207 207 206 205 206 206 206 206 207 207
211 218 199 204 225 236 244 244 220 200 214 223 215 205 199 196 201 211 218 222 221 227 243 249 253 260 255 165 190 223 211 220 248 257 255 251 249 253 259 261 258 257 261 260 254 247 237 228 223 212 214 217 216 215 214 215 215 213 213 213 210 209 206 204 204 205 206 208 207 207 206 206 207 207 206 206 205 206 206 206 206 207 207 207 207 208
216 238 215 176 222 235 241 243 229 191 217 247 240 217 210 208 211 216 217 215 211 219 236 244 251 258 244 142 178 211 185 205 231 235 241 245 242 241 243 248 253 256 257 257 257 254 243 227 221 216 219 222 219 216 216 216 212 211 213 212 209 208 205 204 205 205 207 208 206 206 205 205 204 204 205 205 204 205 206 207 207 207 207 207 208 208
175 209 222 189 215 240 246 241 176 130 186 253 240 224 218 217 217 218 220 222 215 211 222 229 236 246 239 153 192 217 187 209 231 230 234 242 240 238 237 237 242 247 249 251 255 257 251 239 230 226 228 228 224 222 221 216 210 211 212 210 207 205 203 203 205 205 206 206 205 205 204 203 202 202 203 204 205 206 206 207 207 207 207 207 207 208
173 201 217 200 216 245 246 149 107 159 222 238 238 230 224 218 210 210 221 224 217 211 221 233 243 252 248 203 211 223 207 216 232 234 234 234 231 237 242 236 234 241 249 255 257 257 255 250 246 242 241 240 236 232 227 219 214 214 212 207 205 203 202 202 203 203 204 204 204 203 202 202 202 201 202 203 205 205 206 206 207 208 208 208 207 208
190 205 211 202 222 242 205 122 175 223 227 239 254 243 220 209 200 209 225 227 217 214 226 239 250 254 248 230 223 228 224 229 244 251 245 220 208 227 246 251 242 239 247 252 253 254 253 253 256 255 253 251 245 234 224 217 213 210 206 204 201 200 199 199 199 200 201 201 201 201 200 200 200 200 201 203 204 204 204 205 207 207 208 208 208 209
194 203 205 203 211 211 168 191 223 241 266 282 283 264 198 202 195 206 231 237 221 212 218 231 242 247 247 244 245 243 239 260 275 259 223 216 225 226 237 251 250 242 243 244 246 253 259 259 260 261 261 257 242 225 216 211 205 199 197 197 196 196 196 196 196 198 198 198 198 199 199 198 198 198 199 200 201 202 203 205 205 206 207 207 208 210
196 196 200 208 203 205 218 223 237 277 306 276 255 228 192 197 187 188 226 243 226 209 211 223 235 243 247 251 255 257 299 329 294 262 197 216 238 233 231 248 261 264 268 271 264 264 268 266 263 263 260 246 225 213 206 199 194 189 186 187 189 191 192 192 194 195 195 195 196 197 198 198 196 195 196 197 199 201 203 204 205 206 207 207 207 209
201 197 195 207 204 200 223 235 239 252 254 247 244 221 158 177 177 171 206 244 237 214 210 218 230 238 245 251 253 252 70 307 280 264 208 216 248 281 267 279 293 285 288 292 285 282 282 276 269 261 238 211 196 196 191 185 182 178 175 178 182 184 186 188 192 193 194 195 196 197 197 197 196 195 195 198 200 202 202 204 205 206 207 207 208 211
205 206 200 208 213 199 212 233 230 223 239 246 244 208 151 162 150 139 189 244 243 219 204 208 223 231 237 242 241 194 117 247 267 264 208 203 267 7 297 306 321 310 313 315 303 300 302 283 233 182 176 168 166 173 176 175 173 169 168 172 176 179 183 187 191 193 194 195 196 196 196 196 196 198 199 201 202 203 204 205 206 207 208 210 214 219
201 206 203 208 217 212 215 230 231 230 249 248 232 199 175 152 128 129 207 242 235 199 177 184 206 223 231 232 220 162 180 230 254 253 189 179 198 245 257 301 313 320 350 16 25 65 103 123 130 134 142 149 154 160 165 166 164 163 164 168 173 178 184 188 191 192 193 194 194 195 196 196 197 199 201 203 203 204 205 206 207 208 210 214 220 226
197 204 202 208 219 215 216 231 239 242 246 232 199 176 156 133 133 177 220 230 182 157 165 175 192 215 227 219 191 191 214 221 204 160 136 132 155 165 336 312 338 39 53 77 101 113 113 112 119 125 132 144 152 155 160 161 157 156 161 167 173 180 185 187 189 190 191 193 192 194 195 197 199 202 204 205 205 205 205 208 210 213 217 222 227 229
195 202 203 208 218 217 219 228 238 250 237 184 141 142 150 151 185 211 220 225 150 165 177 183 193 209 215 201 194 203 205 139 123 135 117 120 144 147 102 94 96 88 92 103 113 120 115 107 109 117 126 143 152 155 159 159 153 154 162 167 174 180 183 185 187 187 188 189 190 193 195 196 199 201 202 203 203 204 207 212 217 222 226 228 229 230
180 186 202 203 207 214 223 220 224 248 224 144 118 107 211 201 207 197 162 43 186 172 172 187 202 202 186 190 206 195 144 118 135 142 131 136 143 137 135 127 113 109 111 111 117 125 120 112 110 117 129 144 153 157 161 159 154 156 163 167 173 179 181 183 184 184 185 187 189 191 193 195 196 198 199 201 205 209 213 216 218 222 224 225 226 227
178 180 198 201 198 201 213 218 215 222 188 152 144 179 211 202 193 167 152 156 218 193 173 184 205 200 178 182 189 178 159 154 157 151 145 148 148 140 138 133 127 126 121 119 126 132 127 119 116 119 129 143 152 157 163 162 156 156 160 166 171 176 177 178 179 180 182 184 187 188 191 193 195 197 200 204 207 209 210 211 213 216 219 221 223 224
196 194 196 196 202 203 206 217 213 174 183 176 168 197 198 179 154 154 147 146 196 202 178 178 189 188 181 167 155 164 185 180 167 163 153 150 153 146 138 135 133 130 126 123 128 131 128 124 122 121 122 132 145 153 162 166 160 154 156 163 170 174 174 174 176 178 180 183 185 187 189 191 194 198 202 204 204 203 204 207 208 211 215 219 222 225
250 248 240 184 192 210 230 210 177 221 225 212 218 263 194 164 149 158 149 151 188 181 169 178 176 170 171 161 146 166 195 175 158 156 146 145 151 142 130 123 117 120 123 123 124 128 125 121 119 116 113 115 129 142 152 161 159 152 151 158 166 171 172 173 175 177 178 181 184 186 188 188 189 194 197 198 201 204 208 211 212 213 217 219 221 225
306 299 337 288 204 202 219 201 171 221 230 204 194 281 239 213 144 144 152 167 159 152 162 180 155 147 158 163 157 165 176 162 151 152 149 146 148 145 139 127 113 113 119 125 128 129 126 120 115 112 107 105 113 128 136 143 147 145 145 149 157 164 168 170 171 172 174 177 179 180 183 183 182 185 188 191 197 202 208 214 216 216 218 220 221 225
260 121 79 297 254 224 239 226 223 273 263 215 189 201 215 217 159 81 66 86 106 110 117 117 121 135 151 167 164 153 153 159 158 155 156 157 154 152 146 135 124 118 120 128 132 129 124 119 115 112 106 103 111 124 130 132 136 141 144 147 151 159 163 165 166 166 166 169 170 170 174 177 177 178 181 184 190 197 202 209 215 218 223 228 231 233
343 106 152 212 270 310 296 253 237 307 297 259 224 214 220 213 136 88 53 87 107 112 115 108 114 143 155 166 163 145 146 167 171 157 155 159 156 153 147 137 130 125 125 131 134 130 125 120 117 114 109 109 118 125 126 126 131 137 141 144 149 157 160 158 159 159 157 159 162 163 165 169 171 173 177 179 181 187 195 205 215 222 230 236 240 243
159 204 193 132 132 255 251 217 172 177 269 259 232 213 210 189 139 126 132 145 142 147 144 128 109 114 136 153 161 151 150 163 170 161 159 160 156 152 146 135 129 125 125 128 129 127 125 123 121 118 113 115 122 124 122 122 125 129 135 138 143 153 156 152 149 148 148 152 155 156 159 161 162 165 170 173 177 179 179 188 205 217 225 232 237 240
194 196 184 172 199 231 230 202 178 182 216 234 212 193 186 176 162 166 179 183 179 174 162 148 137 133 136 148 161 160 157 160 163 159 152 145 142 141 139 139 136 132 130 130 127 124 123 124 123 120 118 120 123 122 120 120 121 125 131 134 136 144 150 148 144 140 140 144 147 148 151 152 151 155 160 164 173 177 171 166 168 184 204 215 218 223